Location: Unspecified
(50.0830°N, 0.0000°E)
Time: 01:09:02
(UTC+00:00)

Envisat - Pass Details

Date: 23 November 2019
Orbit: 764 x 766 km, 98.1° (Epoch: 14 December)

Event Time Altitude Azimuth Distance (km) Brightness Sun altitude
Rises 18:07:54 0° 174° (S) 3,221 6.3 -18.9°
Reaches altitude 10° 18:10:13 10° 178° (S) 2,299 5.6 -19.2°
Maximum altitude 18:15:14 61° 259° (W) 871 3.5 -20.0°
Drops below altitude 10° 18:20:17 10° 340° (NNW) 2,315 5.6 -20.8°
Sets 18:22:38 0° 344° (NNW) 3,246 6.4 -21.2°
